�N����,����,�~����,�C��,���x,�C��,����,���ϕ���,�ő�u�ԕ���,�ő厞����,���˗�,�I�_���x,�n�����x,�ő啗���N��,DTYPE
"16/10/04","00:10",0.0,20.0,97.3,1007.4,302.9,0.3,1.0,322.8,0.00,19.6,23.0,"00:03:12",1
"16/10/04","00:20",0.0,20.0,97.3,1007.4,341.3,0.8,1.8,342.5,0.00,19.6,23.2,"00:19:04",1
"16/10/04","00:30",0.0,20.1,97.2,1008.1,354.5,0.8,2.0,1.4,0.00,19.7,23.2,"00:21:44",1
"16/10/04","00:40",0.0,20.1,97.2,1008.3,307.0,0.6,1.2,327.4,0.00,19.7,23.1,"00:31:04",1
"16/10/04","00:50",0.0,20.1,97.1,1008.1,290.6,0.3,0.8,319.8,0.00,19.7,23.0,"00:40:48",1
"16/10/04","01:00",0.0,20.1,97.1,1008.1,284.8,0.3,0.9,336.3,0.00,19.7,23.0,"00:52:00",1
"16/10/04","01:10",0.0,20.1,97.2,1008.3,303.9,0.6,0.9,307.7,0.00,19.7,23.0,"01:07:52",1
"16/10/04","01:20",0.0,20.1,97.1,1008.6,324.6,0.6,1.1,340.9,0.00,19.7,23.0,"01:11:28",1
"16/10/04","01:30",0.0,20.1,97.1,1008.3,281.6,0.3,0.6,267.3,0.00,19.7,23.1,"01:23:52",1
"16/10/04","01:40",0.0,20.1,97.1,1008.3,283.2,0.5,0.9,327.5,0.00,19.7,23.0,"01:38:32",1
"16/10/04","01:50",0.0,20.0,97.1,1008.6,310.0,0.3,0.8,323.2,0.00,19.6,22.9,"01:47:28",1
"16/10/04","02:00",0.0,20.0,97.1,1008.1,292.0,0.3,0.8,304.4,0.00,19.6,22.9,"01:54:08",1
"16/10/04","02:10",0.0,19.9,97.1,1008.6,299.2,0.6,0.8,306.3,0.00,19.5,22.9,"02:01:12",1
"16/10/04","02:20",0.0,19.8,97.2,1008.6,296.6,0.5,0.8,237.7,0.00,19.4,22.8,"02:10:40",1
"16/10/04","02:30",0.0,19.8,97.3,1008.6,320.7,0.5,1.1,332.5,0.00,19.4,22.9,"02:21:44",1
"16/10/04","02:40",0.0,19.8,97.3,1008.6,299.8,0.3,0.8,327.1,0.00,19.4,22.8,"02:30:08",1
"16/10/04","02:50",0.0,19.8,97.4,1008.6,321.5,0.7,1.1,344.1,0.00,19.4,22.7,"02:48:00",1
"16/10/04","03:00",0.0,19.8,97.4,1008.6,294.8,0.3,1.0,335.4,0.00,19.4,22.8,"02:50:16",1
"16/10/04","03:10",0.0,19.7,97.4,1008.3,296.7,0.3,0.9,337.9,0.00,19.3,22.7,"03:07:52",1
"16/10/04","03:20",0.0,19.7,97.5,1008.8,303.5,0.5,0.6,331.1,0.00,19.3,22.8,"03:10:16",1
"16/10/04","03:30",0.0,19.7,97.4,1008.3,289.8,0.1,0.4,310.1,0.00,19.3,22.8,"03:21:44",1
"16/10/04","03:40",0.0,19.7,97.5,1008.3,301.5,0.3,0.8,336.7,0.00,19.3,22.7,"03:38:48",1
"16/10/04","03:50",0.0,19.7,97.5,1008.1,303.6,0.2,0.8,303.8,0.00,19.3,22.6,"03:41:12",1
"16/10/04","04:00",0.0,19.7,97.6,1008.8,330.6,0.6,1.0,345.6,0.00,19.3,22.6,"03:55:36",1
"16/10/04","04:10",0.0,19.7,97.6,1008.6,345.2,0.6,1.4,353.2,0.00,19.3,22.5,"04:00:32",1
"16/10/04","04:20",0.0,19.8,97.7,1009.0,256.9,0.5,0.6,251.3,0.00,19.5,22.6,"04:16:16",1
"16/10/04","04:30",0.0,19.8,97.7,1009.0,281.9,0.3,0.8,267.7,0.00,19.5,22.6,"04:21:28",1
"16/10/04","04:40",0.0,19.9,97.7,1009.0,336.1,0.7,1.3,337.5,0.00,19.6,22.7,"04:36:00",1
"16/10/04","04:50",0.0,19.9,97.6,1009.3,309.2,0.5,1.0,327.7,0.00,19.5,22.6,"04:44:32",1
"16/10/04","05:00",0.0,20.0,97.7,1009.3,316.6,0.6,1.6,344.0,0.00,19.7,22.7,"04:58:48",1
"16/10/04","05:10",0.0,20.0,97.7,1009.7,310.6,0.5,0.8,339.2,0.00,19.7,22.7,"05:00:40",1
"16/10/04","05:20",0.0,20.1,97.6,1009.7,297.0,0.5,1.0,323.1,0.00,19.7,22.7,"05:10:16",1
"16/10/04","05:30",0.0,20.1,97.6,1010.0,311.8,0.6,1.0,330.8,0.00,19.7,22.7,"05:21:44",1
"16/10/04","05:40",0.0,20.1,97.5,1010.4,311.6,0.6,1.4,349.5,0.00,19.7,22.6,"05:33:04",1
"16/10/04","05:50",0.0,20.0,97.6,1010.0,301.0,0.6,1.1,312.6,0.00,19.6,22.7,"05:46:16",1
"16/10/04","06:00",0.0,20.0,97.6,1009.7,311.6,0.6,1.6,348.6,0.00,19.6,22.7,"05:59:12",1
"16/10/04","06:10",0.0,20.0,97.6,1010.0,323.2,1.0,1.8,348.4,0.00,19.6,22.7,"06:09:36",1
"16/10/04","06:20",0.0,20.0,97.6,1010.0,316.8,0.8,1.6,328.1,0.00,19.6,22.7,"06:14:08",1
"16/10/04","06:30",0.0,19.9,97.6,1010.2,283.8,0.5,1.1,313.0,0.00,19.5,22.6,"06:20:48",1
"16/10/04","06:40",0.0,20.0,97.6,1010.2,292.7,0.5,0.9,318.0,0.00,19.6,22.5,"06:39:28",1
"16/10/04","06:50",0.0,20.3,97.6,1010.4,303.8,0.7,1.2,323.3,0.01,19.9,22.6,"06:48:00",1
"16/10/04","07:00",0.0,20.4,97.5,1010.2,328.3,0.7,1.4,334.7,0.01,20.0,22.8,"06:56:32",1
"16/10/04","07:10",0.0,20.5,97.4,1010.0,301.6,0.5,1.3,337.1,0.02,20.1,22.5,"07:05:44",1
"16/10/04","07:20",0.0,20.6,97.2,1010.4,272.1,0.6,1.4,337.8,0.02,20.2,22.7,"07:14:16",1
"16/10/04","07:30",0.0,20.8,97.0,1010.2,300.2,0.5,0.9,312.8,0.04,20.3,22.6,"07:24:40",1
"16/10/04","07:40",0.0,20.9,96.5,1010.4,258.7,0.6,1.0,248.9,0.04,20.4,22.8,"07:35:44",1
"16/10/04","07:50",0.0,21.1,96.2,1010.4,251.3,0.6,1.7,238.9,0.07,20.5,22.7,"07:48:48",1
"16/10/04","08:00",0.0,21.4,95.4,1010.2,311.5,0.6,1.4,351.1,0.09,20.7,22.7,"07:50:24",1
"16/10/04","08:10",0.0,21.9,93.9,1010.0,295.2,0.3,1.0,322.9,0.11,20.9,22.9,"08:01:52",1
"16/10/04","08:20",0.0,22.1,92.6,1010.2,277.5,0.5,1.1,331.4,0.11,20.9,22.9,"08:13:44",1
"16/10/04","08:30",0.0,22.2,92.4,1010.2,257.6,0.6,1.3,232.5,0.11,20.9,23.0,"08:22:08",1
"16/10/04","08:40",0.0,22.4,92.2,1010.0,308.7,0.7,1.3,345.9,0.12,21.1,23.1,"08:34:24",1
"16/10/04","08:50",0.0,23.0,91.0,1009.7,288.4,0.6,1.1,213.2,0.19,21.5,23.2,"08:40:32",1
"16/10/04","09:00",0.0,23.1,89.4,1009.7,316.0,0.7,1.4,318.4,0.17,21.3,23.2,"08:53:04",1
"16/10/04","09:10",0.0,22.9,89.2,1009.7,279.8,0.6,1.9,238.3,0.16,21.1,23.4,"09:06:32",1
"16/10/04","09:20",0.0,23.1,88.4,1010.0,261.0,0.6,1.7,238.0,0.18,21.1,23.5,"09:11:52",1
"16/10/04","09:30",0.0,23.6,87.1,1010.0,295.2,0.3,1.0,342.7,0.21,21.4,23.5,"09:29:44",1
"16/10/04","09:40",0.0,24.4,85.4,1009.7,261.3,0.3,1.3,221.0,0.29,21.8,23.7,"09:36:48",1
"16/10/04","09:50",0.0,24.3,84.5,1009.5,339.1,0.5,1.2,338.9,0.22,21.6,23.9,"09:43:12",1
"16/10/04","10:00",0.0,24.9,84.9,1009.0,359.6,0.6,1.7,7.8,0.30,22.2,23.9,"09:56:32",1
"16/10/04","10:10",0.0,25.7,81.8,1009.7,351.8,0.6,2.0,353.0,0.42,22.4,24.5,"10:03:52",1
"16/10/04","10:20",0.0,25.8,80.5,1010.0,320.1,0.6,1.9,228.6,0.30,22.2,24.6,"10:19:44",1
"16/10/04","10:30",0.0,26.2,81.5,1009.5,182.0,0.5,1.7,198.8,0.25,22.8,24.6,"10:20:08",1
"16/10/04","10:40",0.0,26.5,79.4,1009.5,274.5,0.3,1.0,354.4,0.24,22.7,24.7,"10:30:32",1
"16/10/04","10:50",0.0,26.5,79.9,1008.3,213.4,0.5,1.8,229.8,0.25,22.8,25.0,"10:43:12",1
"16/10/04","11:00",0.0,27.9,78.9,1008.8,250.9,0.3,1.1,211.0,0.43,23.9,25.1,"10:57:28",1
"16/10/04","11:10",0.0,27.6,74.4,1009.0,241.7,0.7,2.7,206.1,0.39,22.7,25.2,"11:01:04",1
"16/10/04","11:20",0.0,27.3,73.8,1009.7,0.6,0.8,3.2,7.5,0.23,22.3,25.4,"11:18:56",1
"16/10/04","11:30",0.0,27.0,73.1,1009.0,354.6,1.3,2.9,341.8,0.23,21.8,25.4,"11:27:28",1
"16/10/04","11:40",0.0,27.4,72.1,1008.6,339.9,0.8,2.7,4.7,0.25,22.0,25.5,"11:35:44",1
"16/10/04","11:50",0.0,27.5,70.9,1008.3,354.9,1.0,2.2,354.0,0.25,21.8,25.6,"11:41:52",1
"16/10/04","12:00",0.0,27.2,70.0,1008.3,16.8,1.1,2.4,32.7,0.19,21.3,25.7,"11:54:00",1
"16/10/04","12:10",0.0,27.0,71.7,1007.8,356.5,1.1,2.9,1.1,0.17,21.5,25.7,"12:09:12",1
"16/10/04","12:20",0.0,26.9,72.8,1008.1,0.8,1.5,2.8,352.3,0.20,21.6,25.8,"12:13:44",1
"16/10/04","12:30",0.0,27.0,73.5,1007.8,350.5,1.2,2.9,4.1,0.21,21.9,25.7,"12:28:40",1
"16/10/04","12:40",0.0,26.8,72.0,1008.1,344.7,1.3,3.6,349.5,0.22,21.4,25.8,"12:33:20",1
"16/10/04","12:50",0.0,26.8,71.1,1008.1,1.3,1.3,3.1,3.5,0.23,21.2,26.0,"12:49:12",1
"16/10/04","13:00",0.0,27.2,69.6,1007.8,335.2,1.1,2.1,351.1,0.30,21.2,25.9,"12:58:48",1
"16/10/04","13:10",0.0,27.4,70.4,1007.6,351.6,1.5,3.3,23.4,0.35,21.6,26.0,"13:08:16",1
"16/10/04","13:20",0.0,27.3,69.0,1007.6,353.4,1.3,3.2,3.5,0.32,21.2,26.3,"13:10:56",1
"16/10/04","13:30",0.0,27.5,67.5,1007.6,2.4,1.6,3.1,342.0,0.32,21.0,26.1,"13:21:28",1
"16/10/04","13:40",0.0,27.4,66.8,1007.6,350.4,1.7,3.5,353.8,0.29,20.7,26.2,"13:34:32",1
"16/10/04","13:50",0.0,27.8,67.5,1007.6,343.0,1.3,3.3,336.4,0.32,21.3,26.3,"13:46:24",1
"16/10/04","14:00",0.0,27.7,65.7,1007.6,330.1,0.8,2.8,334.2,0.31,20.7,26.2,"13:51:04",1
"16/10/04","14:10",0.0,27.5,66.0,1007.6,323.8,0.7,2.4,332.7,0.23,20.6,26.3,"14:04:16",1
"16/10/04","14:20",0.0,27.4,66.9,1007.6,340.4,0.8,2.2,341.1,0.20,20.7,26.4,"14:14:56",1
"16/10/04","14:30",0.0,27.0,67.6,1007.4,348.2,1.3,3.4,7.0,0.18,20.5,26.4,"14:26:32",1
"16/10/04","14:40",0.0,27.0,68.7,1006.9,341.0,1.1,2.5,5.8,0.18,20.8,26.4,"14:30:16",1
"16/10/04","14:50",0.0,26.6,69.4,1006.7,338.2,1.1,2.4,340.2,0.13,20.6,26.4,"14:41:52",1
"16/10/04","15:00",0.0,26.7,70.6,1006.9,344.6,1.2,3.3,346.9,0.14,21.0,26.5,"14:51:52",1
"16/10/04","15:10",0.0,26.3,69.8,1007.4,337.3,1.2,3.1,350.4,0.11,20.4,26.3,"15:09:52",1
"16/10/04","15:20",0.0,26.2,70.0,1007.4,329.9,1.0,2.6,342.1,0.10,20.3,26.1,"15:15:44",1
"16/10/04","15:30",0.0,26.2,71.1,1007.4,344.7,1.3,3.9,24.7,0.12,20.6,26.5,"15:26:08",1
"16/10/04","15:40",0.0,26.0,69.5,1007.6,336.0,1.3,3.2,358.3,0.10,20.0,26.4,"15:32:48",1
"16/10/04","15:50",0.0,25.9,69.2,1007.8,330.0,1.5,3.4,3.5,0.10,19.9,26.2,"15:40:08",1
"16/10/04","16:00",0.0,26.1,67.5,1007.8,336.6,1.3,4.0,357.4,0.09,19.7,25.9,"15:58:00",1
"16/10/04","16:10",0.0,25.9,66.8,1008.1,330.0,1.2,3.4,4.9,0.08,19.3,26.0,"16:06:56",1
"16/10/04","16:20",0.0,25.5,67.8,1008.3,317.0,1.1,3.4,3.3,0.06,19.2,26.0,"16:12:40",1
"16/10/04","16:30",0.0,25.3,69.8,1008.3,298.0,0.7,1.7,331.9,0.05,19.4,25.8,"16:24:00",1
"16/10/04","16:40",0.0,25.0,71.1,1008.6,318.0,1.0,2.2,343.2,0.05,19.4,25.9,"16:35:04",1
"16/10/04","16:50",0.0,24.6,71.9,1008.6,294.2,0.7,1.7,345.9,0.03,19.2,25.6,"16:41:20",1
"16/10/04","17:00",0.0,24.3,73.0,1008.6,318.9,1.2,2.9,343.3,0.02,19.2,25.7,"16:54:32",1
"16/10/04","17:10",0.0,23.9,74.0,1008.8,324.6,0.8,3.3,5.2,0.01,19.0,25.6,"17:08:56",1
"16/10/04","17:20",0.0,23.6,74.5,1009.3,332.8,1.5,3.3,348.9,0.00,18.8,25.5,"17:11:36",1
"16/10/04","17:30",0.0,23.4,74.8,1009.0,328.7,1.3,3.7,351.3,0.00,18.7,25.4,"17:23:28",1
"16/10/04","17:40",0.0,23.1,74.3,1009.3,302.7,1.0,2.6,357.1,0.00,18.3,25.4,"17:34:56",1
"16/10/04","17:50",0.0,22.9,75.1,1009.7,299.6,1.0,1.8,356.6,0.00,18.3,25.2,"17:40:56",1
"16/10/04","18:00",0.0,22.8,76.4,1010.0,304.4,1.2,2.7,0.4,0.00,18.5,25.1,"17:56:56",1
"16/10/04","18:10",0.0,22.6,77.4,1010.0,305.6,1.1,2.9,0.6,0.00,18.5,24.7,"18:07:28",1
"16/10/04","18:20",0.0,22.3,78.6,1010.0,311.4,1.0,2.4,337.8,0.00,18.4,24.8,"18:13:28",1
"16/10/04","18:30",0.0,22.1,78.7,1010.0,329.5,1.2,3.5,305.1,0.00,18.3,24.8,"18:25:36",1
"16/10/04","18:40",0.0,22.2,77.7,1010.2,317.5,1.1,2.4,350.9,0.00,18.2,24.7,"18:32:00",1
"16/10/04","18:50",0.0,22.1,78.4,1010.2,301.9,1.2,2.9,352.3,0.00,18.2,24.7,"18:43:20",1
"16/10/04","19:00",0.0,21.8,79.9,1010.4,301.9,1.0,2.5,316.1,0.00,18.2,24.4,"18:53:36",1
"16/10/04","19:10",0.0,21.6,81.1,1010.7,331.8,1.0,1.6,337.3,0.00,18.3,24.4,"19:06:44",1
"16/10/04","19:20",0.0,21.4,82.4,1010.7,305.1,0.8,1.3,323.8,0.00,18.3,24.2,"19:13:52",1
"16/10/04","19:30",0.0,21.2,83.5,1010.7,285.7,0.8,1.7,332.6,0.00,18.3,24.3,"19:27:12",1
"16/10/04","19:40",0.0,21.2,82.1,1010.9,316.6,1.1,2.4,331.8,0.00,18.1,24.1,"19:36:40",1
"16/10/04","19:50",0.0,21.3,81.3,1010.9,313.7,0.8,2.4,342.3,0.00,18.0,24.0,"19:46:16",1
"16/10/04","20:00",0.0,21.5,81.0,1010.9,318.0,1.6,4.0,347.8,0.00,18.1,24.0,"19:54:40",1
"16/10/04","20:10",0.0,21.5,81.1,1011.2,306.6,1.1,2.8,339.3,0.00,18.2,24.1,"20:03:12",1
"16/10/04","20:20",0.0,21.4,81.3,1011.4,298.8,1.1,2.4,306.7,0.00,18.1,23.7,"20:14:40",1
"16/10/04","20:30",0.0,21.5,80.6,1010.9,317.4,1.0,2.7,347.2,0.00,18.1,23.9,"20:24:16",1
"16/10/04","20:40",0.0,21.4,80.4,1011.2,281.5,0.8,2.2,231.3,0.00,17.9,23.8,"20:33:44",1
"16/10/04","20:50",0.0,21.5,80.3,1011.6,325.6,1.1,3.3,351.3,0.00,18.0,23.8,"20:44:00",1
"16/10/04","21:00",0.0,21.3,81.3,1011.6,299.0,0.8,2.4,244.6,0.00,18.0,23.7,"20:54:56",1
"16/10/04","21:10",0.0,20.9,82.9,1011.2,301.4,1.1,1.7,340.1,0.00,17.9,23.7,"21:06:32",1
"16/10/04","21:20",0.0,20.6,84.6,1011.2,299.8,1.0,1.3,328.3,0.00,18.0,23.6,"21:19:12",1
"16/10/04","21:30",0.0,20.3,86.2,1011.4,278.0,0.8,1.4,249.9,0.00,18.0,23.6,"21:28:56",1
"16/10/04","21:40",0.0,20.1,87.3,1011.4,291.1,0.7,1.1,312.2,0.00,18.0,23.6,"21:31:28",1
"16/10/04","21:50",0.0,19.9,88.2,1010.9,264.1,0.6,1.2,243.4,0.00,17.9,23.4,"21:40:02",1
"16/10/04","22:00",0.0,20.0,88.2,1011.2,300.0,1.1,1.8,333.8,0.00,18.0,23.1,"21:57:44",1
"16/10/04","22:10",0.0,19.9,87.9,1010.9,299.3,0.8,1.6,322.8,0.00,17.9,23.4,"22:00:16",1
"16/10/04","22:20",0.0,19.8,88.5,1011.6,303.4,0.7,1.2,318.1,0.00,17.9,23.3,"22:14:32",1
"16/10/04","22:30",0.0,19.7,89.3,1011.4,316.3,1.0,1.7,327.4,0.00,17.9,23.2,"22:24:16",1
"16/10/04","22:40",0.0,19.5,89.9,1010.9,320.6,1.1,1.3,329.6,0.00,17.8,23.2,"22:32:00",1
"16/10/04","22:50",0.0,19.3,90.2,1010.9,311.8,1.1,1.7,330.1,0.00,17.7,23.0,"22:40:16",1
"16/10/04","23:00",0.0,19.3,90.5,1011.4,315.9,1.1,2.2,337.4,0.00,17.7,23.2,"22:50:16",1
"16/10/04","23:10",0.0,19.3,90.5,1010.9,326.8,1.2,1.9,326.7,0.00,17.7,23.2,"23:05:36",1
"16/10/04","23:20",0.0,19.3,90.4,1010.9,324.7,1.3,2.4,339.1,0.00,17.7,23.1,"23:11:20",1
"16/10/04","23:30",0.0,19.1,90.8,1010.7,324.8,1.2,2.1,343.5,0.00,17.6,23.0,"23:25:20",1
"16/10/04","23:40",0.0,19.2,91.0,1011.2,314.3,1.2,1.7,340.7,0.00,17.7,22.9,"23:31:04",1
"16/10/04","23:50",0.0,19.2,91.1,1011.2,318.0,1.3,2.0,312.7,0.00,17.8,22.9,"23:46:48",1
"16/10/04","24:00",0.0,19.2,90.6,1010.7,322.3,1.3,1.9,337.2,0.00,17.7,22.8,"23:55:36",1
